#timestamp,LO_Frequency,Hit,StdDev 
1550260815.8,286046986.0,N
1550260835.6,286046985.8,N
1550260855.4,286046989.7,N
1550260875.3,286046994.2,N
1550260895.1,286046993.8,N
1550260915.9,286046995.2,N
1550260935.7,286046991.8,N
1550260955.5,286046986.9,N
1550260975.4,286046992.8,N
1550260995.2,286046997.9,N
1550261015.0,286046997.9,N
1550261015.9,286046997.9,N
1550261035.8,286047000.7,N
1550261055.6,286047002.5,N
1550261075.5,286047002.0,N
1550261095.3,286047001.9,N
1550261115.1,286047000.4,N
1550261135.9,286047002.8,N
1550261155.7,286046998.7,N
1550261175.6,286046999.6,N
1550261195.4,286046995.7,N
1550261215.2,286046998.5,N
1550261235.1,286047001.0,N
1550261236.0,286047001.0,N
1550261255.8,286047006.0,N
1550261275.6,286047003.3,N
1550261295.5,286047000.4,N
1550261315.3,286047004.4,N
1550261335.2,286047003.3,N
1550261355.9,286047005.7,N
1550261375.7,286047003.0,N
1550261395.6,286047006.2,N
1550261415.4,286047010.5,N
1550261435.2,286047010.2,N
1550261455.1,286047013.0,N
1550261456.0,286047013.0,N
1550261475.8,286047014.5,N
1550261495.7,286047016.3,N
1550261515.5,286047014.8,N
1550261535.3,286047014.8,N
1550261555.2,286047015.8,N
1550261575.0,286047016.5,N
1550261575.9,286047016.5,N
1550261595.8,286047020.2,Y
1550261615.6,286047012.9,P
1550261635.4,286047015.6,P
1550261655.3,286047017.1,P
1550261675.1,286047015.2,Y
1550261695.9,286047005.5,P
1550261715.7,286047007.9,N
1550261735.5,286047010.8,P
1550261755.4,286047011.5,Y
1550261775.2,286047005.4,P
1550261795.1,286047004.9,N
1550261796.0,286047004.9,N
1550261815.8,286047009.9,Y
1550261835.6,286047010.7,P
1550261855.5,286047013.2,P
1550261875.3,286047017.7,P
1550261895.2,286047017.2,Y
1550261915.9,286047005.9,P
1550261935.7,286047002.2,N
1550261955.6,286046997.2,N
1550261975.4,286046991.7,N
1550261995.3,286046988.6,N
1550262015.1,286046987.6,N
1550262016.0,286046987.6,N
1550262035.8,286046987.9,N
1550262055.7,286046987.5,N
1550262075.5,286046986.1,N
1550262095.3,286046985.2,N
1550262115.2,286046984.6,N
1550262135.0,286046983.9,N
1550262135.9,286046983.9,N
1550262155.8,286046988.2,N
1550262175.6,286046991.5,N
1550262195.4,286046991.6,N
1550262215.3,286046992.7,N
1550262235.1,286046995.1,N
1550262255.9,286046992.6,N
1550262275.7,286046989.1,N
1550262295.5,286046991.8,N
1550262315.4,286046986.3,N
1550262335.2,286046993.6,N
1550262355.0,286046993.9,N
1550262355.9,286046993.9,N
1550262375.8,286046997.7,N
1550262395.6,286046993.9,N
1550262415.5,286046995.7,N
1550262435.3,286046994.9,N
1550262455.1,286046992.5,N
1550262475.9,286046988.5,N
1550262495.7,286046986.9,Y
1550262515.6,286047002.2,P
1550262535.4,286047005.2,N
1550262555.2,286047001.8,N
1550262575.1,286047001.9,N
1550262576.0,286047001.9,N
1550262595.8,286047003.2,N
1550262615.6,286047003.6,N
1550262635.5,286047004.9,N
1550262655.3,286047008.3,N
1550262675.2,286047003.3,N
1550262695.9,286047006.3,N
1550262715.7,286047008.7,N
1550262735.6,286047012.4,N
1550262755.4,286047008.6,N
1550262775.2,286047007.8,N
1550262795.1,286047005.0,N
1550262796.0,286047005.0,N
1550262815.8,286047007.5,N
1550262835.7,286047010.3,N
1550262855.5,286047015.6,Y
1550262875.3,286047015.1,P
1550262895.2,286047013.3,N
1550262915.0,286047014.6,P
1550262915.9,286047014.6,Y
1550262935.8,286047005.0,P
1550262955.6,286047006.6,N
1550262975.4,286047009.2,P
1550262995.3,286047003.7,N
1550263015.1,286047001.6,N
1550263035.9,286047002.1,N
1550263055.7,286047005.5,N
1550263075.5,286047001.8,N
1550263095.4,286047005.8,N
1550263115.2,286047010.8,Y
1550263135.0,286047002.0,P
1550263135.9,286047002.0,N
1550263155.8,286047001.8,N
1550263175.6,286047004.5,Y
1550263195.5,286047004.3,P
1550263215.3,286047002.9,P
1550263235.1,286047001.0,N
1550263255.9,286047001.0,N
1550263275.7,286047005.6,Y
1550263295.6,286046998.6,P
1550263315.4,286047003.3,N
1550263335.2,286047003.6,N
1550263355.1,286047000.2,N
1550263356.0,286047000.2,N
1550263375.8,286047002.1,N
1550263395.7,286047006.4,Y
1550263415.5,286047000.6,P
1550263435.3,286046999.9,N
1550263455.2,286047005.2,P
1550263475.9,286047006.9,Y
1550263495.7,286047006.2,P
1550263515.6,286047007.7,P
1550263535.4,286047009.4,P
1550263555.3,286047014.2,Y
1550263575.1,286047011.7,P
1550263595.8,286047007.0,N
1550263615.7,286047004.5,N
1550263635.5,286047009.1,Y
1550263655.4,286047001.3,P
1550263675.2,286046998.5,N
1550263695.0,286046997.1,N
1550263695.9,286046997.1,N
1550263715.8,286047000.5,N
1550263735.6,286047003.4,N
1550263755.5,286047010.4,Y
1550263775.3,286047008.8,P
1550263795.1,286047009.8,N
1550263815.9,286047009.6,N
1550263835.7,286047008.2,N
1550263855.5,286047008.0,N
1550263875.4,286047012.3,Y
1550263895.2,286047007.5,P
1550263915.1,286047001.8,P
1550263916.0,286047001.8,N
1550263935.8,286047004.3,N
1550263955.6,286046999.7,N
1550263975.5,286046998.1,N
1550263995.3,286047000.8,N
1550264015.2,286047000.2,N
1550264035.9,286047000.0,N
1550264055.7,286046997.6,N
1550264075.6,286046999.2,N
1550264095.4,286047002.8,N
1550264115.2,286046996.8,N
1550264135.1,286047002.8,N
1550264136.0,286047002.8,N
1550264155.8,286047004.9,N
1550264175.7,286047007.7,N
1550264195.5,286047006.3,N
1550264215.3,286047007.3,N
1550264235.2,286047004.2,N
1550264255.0,286047005.9,N
1550264255.9,286047005.9,N
1550264275.8,286047008.0,N
1550264295.6,286047004.1,N
1550264315.4,286047009.2,N
1550264335.3,286047010.1,N
1550264355.1,286047013.0,Y
1550264375.9,286047008.0,P
1550264395.7,286047001.3,N
